Location: Zagreb
(45.8000°N, 16.0000°E)
Time: 03:00:16
(UTC+01:00)

Vanguard 1 Rocket - Visible Passes

Search period start: 23 January 2022 00:00
Search period end: 02 February 2022 00:00
Orbit: 651 x 4224 km, 34.3° (Epoch: 22 January)

Date Brightness Start Highest point End Pass type
(mag) Time Alt. Az. Time Alt. Az. Time Alt. Az.
23 Jan 10.2 19:06:05 10° WSW 19:10:29 14° SW 19:13:58 10° SSW visible
24 Jan 10.1 17:50:07 10° W 18:00:03 26° SW 18:06:14 10° SSE visible
25 Jan 10.6 19:10:36 10° WSW 19:12:22 11° SW 19:13:59 10° SW visible
26 Jan 10.3 17:52:38 10° W 18:02:02 23° SW 18:08:10 10° S visible
28 Jan 10.6 17:55:25 10° W 18:03:52 19° SW 18:09:45 10° S visible
30 Jan 10.9 17:58:40 10° W 18:05:35 15° SW 18:10:47 10° SSW visible
31 Jan 12.4 06:50:29 10° SSE 07:01:32 15° SE 07:12:44 10° E visible
01 Feb 11.2 18:03:01 10° WSW 18:07:08 12° WSW 18:10:38 10° SW visible
